#timestamp, heartrate, avg heartrate, target_hr, tolerance,  speed, incline, distance, duration, notes
1522898159, 85, 82, 128, 3.5, 8, 8, 0.133333, 0, 
1522898189, 104, 88, 128, 3.5, 8, 8, 0.2667, 0, 
1522898189, 104, 88, 128, 3.5, 8, 8, 0.4, 0,  heartrate too low!
1522898190, 105, 89, 128, 3.5, 8, 8, 0.5333, 0.01667, 
1522898191, 105, 89, 128, 3.5, 8, 8, 0.6667, 0.03333, 
1522898192, 105, 90, 128, 3.5, 8, 8, 0.8, 0.05, 
1522898193, 103, 91, 128, 3.5, 8, 8, 0.9333, 0.06667, 
1522898194, 102, 92, 128, 3.5, 9, 8, 1.083, 0.08333, 
1522898195, 100, 92, 128, 3.5, 9, 8, 1.233, 0.1, 
1522898196, 99, 93, 128, 3.5, 9, 8, 1.383, 0.1167, 
1522898197, 99, 93, 128, 3.5, 9, 8, 1.533, 0.1333, 
1522898198, 100, 94, 128, 3.5, 9, 8, 1.683, 0.15, 
1522898199, 100, 95, 128, 3.5, 9, 8, 1.833, 0.1667, 
1522898200, 102, 95, 128, 3.5, 9, 8, 1.983, 0.1833, 
1522898201, 103, 96, 128, 3.5, 9, 8, 2.133, 0.2, 
1522898202, 105, 97, 128, 3.5, 9, 8, 2.283, 0.2167, 
1522898203, 107, 98, 128, 3.5, 9, 8, 2.433, 0.2333, 
1522898204, 109, 98, 128, 3.5, 9, 8, 2.583, 0.25, 
1522898205, 111, 99, 128, 3.5, 9, 8, 2.733, 0.2667, 
1522898206, 113, 100, 128, 3.5, 9, 8, 2.883, 0.2833, 
1522898207, 115, 101, 128, 3.5, 9, 8, 3.033, 0.3, 
1522898208, 116, 102, 128, 3.5, 9, 8, 3.183, 0.3167, 
1522898209, 118, 103, 128, 3.5, 9, 8, 3.333, 0.3333, 
1522898210, 119, 103, 128, 3.5, 9, 8, 3.483, 0.35, 
1522898211, 119, 103, 128, 3.5, 9, 8, 3.633, 0.3667, 
1522898212, 119, 104, 128, 3.5, 9, 8, 3.783, 0.3833, 
1522898213, 120, 105, 128, 3.5, 9, 8, 3.933, 0.4, 
1522898214, 120, 106, 128, 3.5, 9, 8, 4.083, 0.4167, 
1522898215, 120, 107, 128, 3.5, 9, 8, 4.233, 0.4333, 
1522898216, 120, 107, 128, 3.5, 9, 8, 4.383, 0.45, 
1522898217, 120, 108, 128, 3.5, 9, 8, 4.533, 0.4667, 
1522898218, 120, 109, 128, 3.5, 9, 8, 4.683, 0.4833, 
1522898219, 120, 109, 128, 3.5, 9, 8, 4.833, 0.5, 
1522898220, 121, 110, 128, 3.5, 9, 8, 4.983, 0.5167,  heartrate too low!
1522898221, 122, 111, 128, 3.5, 9, 8, 5.133, 0.5333, 
1522898222, 123, 111, 128, 3.5, 9, 8, 5.283, 0.55, 
1522898223, 124, 112, 128, 3.5, 9, 8, 5.433, 0.5667, 
1522898224, 124, 113, 128, 3.5, 9, 8, 5.583, 0.5833, 
1522898225, 125, 113, 128, 3.5, 9, 8, 5.733, 0.6, 
1522898226, 124, 114, 128, 3.5, 10, 8, 5.9, 0.6167, 
1522898227, 123, 115, 128, 3.5, 10, 8, 6.067, 0.6333, 
1522898228, 123, 116, 128, 3.5, 10, 8, 6.233, 0.65, 
1522898229, 122, 116, 128, 3.5, 10, 8, 6.4, 0.6667, 
1522898230, 120, 117, 128, 3.5, 10, 8, 6.567, 0.6833, 
1522898231, 119, 118, 128, 3.5, 10, 8, 6.733, 0.7, 
1522898232, 117, 118, 128, 3.5, 10, 8, 6.9, 0.7167, 
1522898233, 116, 119, 128, 3.5, 10, 8, 7.067, 0.7333, 
1522898234, 115, 119, 128, 3.5, 10, 8, 7.233, 0.75, 
1522898235, 115, 119, 128, 3.5, 10, 8, 7.4, 0.7667, 
1522898236, 116, 119, 128, 3.5, 10, 8, 7.567, 0.7833, 
1522898237, 118, 119, 128, 3.5, 10, 8, 7.733, 0.8, 
1522898238, 119, 119, 128, 3.5, 10, 8, 7.9, 0.8167, 
1522898239, 120, 120, 128, 3.5, 10, 8, 8.067, 0.8333, 
1522898240, 122, 120, 128, 3.5, 10, 8, 8.233, 0.85, 
1522898241, 123, 120, 128, 3.5, 10, 8, 8.4, 0.8667, 
1522898242, 124, 120, 128, 3.5, 10, 8, 8.567, 0.8833, 
1522898243, 125, 120, 128, 3.5, 10, 8, 8.733, 0.9, 
1522898244, 126, 120, 128, 3.5, 10, 8, 8.9, 0.9167, 
1522898245, 126, 121, 128, 3.5, 10, 8, 9.067, 0.9333, 
1522898246, 126, 121, 128, 3.5, 10, 8, 9.233, 0.95, 
#timestamp, heartrate, avg heartrate, target_hr, tolerance,  speed, incline, distance, duration, notes
1522898247, 126, 121, 128, 3.5, 10, 8, 9.4, 0.9667, 
1522898248, 126, 121, 128, 3.5, 10, 8, 9.567, 0.9833, 
1522898249, 124, 121, 128, 3.5, 10, 8, 9.733, 1, 
1522898250, 124, 121, 128, 3.5, 10, 8, 9.9, 1.017, 
1522898251, 124, 121, 128, 3.5, 10, 8, 10.07, 1.033,  heartrate too low!
1522898252, 124, 122, 128, 3.5, 10, 8, 10.23, 1.05, 
1522898253, 124, 122, 128, 3.5, 10, 8, 10.4, 1.067, 
1522898254, 125, 122, 128, 3.5, 10, 8, 10.57, 1.083, 
1522898255, 125, 122, 128, 3.5, 10, 8, 10.73, 1.1, 
1522898256, 125, 122, 128, 3.5, 10, 8, 10.9, 1.117, 
1522898257, 125, 122, 128, 3.5, 10, 8, 11.07, 1.133, 
1522898258, 125, 122, 128, 3.5, 11, 8, 11.25, 1.15, 
1522898259, 125, 122, 128, 3.5, 11, 8, 11.43, 1.167, 
1522898260, 126, 122, 128, 3.5, 11, 8, 11.62, 1.183, 
1522898261, 126, 122, 128, 3.5, 11, 8, 11.8, 1.2, 
1522898262, 125, 123, 128, 3.5, 11, 8, 11.98, 1.217, 
1522898263, 125, 123, 128, 3.5, 11, 8, 12.17, 1.233, 
1522898264, 125, 123, 128, 3.5, 11, 8, 12.35, 1.25, 
1522898265, 125, 123, 128, 3.5, 11, 8, 12.53, 1.267, 
1522898266, 125, 124, 128, 3.5, 11, 8, 12.72, 1.283, 
1522898267, 125, 124, 128, 3.5, 11, 8, 12.9, 1.3, 
1522898268, 126, 124, 128, 3.5, 11, 8, 13.08, 1.317, 
1522898269, 127, 124, 128, 3.5, 11, 8, 13.27, 1.333, 
1522898270, 127, 125, 128, 3.5, 11, 8, 13.45, 1.35, 
1522898271, 128, 125, 128, 3.5, 11, 8, 13.63, 1.367, 
1522898272, 127, 125, 128, 3.5, 11, 8, 13.82, 1.383, 
1522898273, 126, 125, 128, 3.5, 11, 8, 14, 1.4, 
1522898274, 125, 125, 128, 3.5, 11, 8, 14.18, 1.417, 
1522898275, 123, 125, 128, 3.5, 11, 8, 14.37, 1.433, 
1522898276, 122, 125, 128, 3.5, 11, 8, 14.55, 1.45, 
1522898277, 122, 125, 128, 3.5, 11, 8, 14.73, 1.467, 
1522898278, 120, 124, 128, 3.5, 11, 8, 14.92, 1.483, 
1522898279, 120, 124, 128, 3.5, 11, 8, 15.1, 1.5, 
1522898280, 119, 124, 128, 3.5, 11, 8, 15.28, 1.517, 
1522898281, 119, 124, 128, 3.5, 11, 8, 15.47, 1.533, 
1522898282, 118, 124, 128, 3.5, 11, 8, 15.65, 1.55,  heartrate too low!
1522898283, 119, 124, 128, 3.5, 11, 8, 15.83, 1.567, 
1522898284, 120, 123, 128, 3.5, 11, 8, 16.02, 1.583, 
1522898285, 122, 123, 128, 3.5, 11, 8, 16.2, 1.6, 
1522898286, 124, 123, 128, 3.5, 11, 8, 16.38, 1.617, 
1522898287, 125, 123, 128, 3.5, 11, 8, 16.57, 1.633, 
1522898288, 127, 123, 128, 3.5, 12, 8, 16.77, 1.65, 
1522898289, 128, 123, 128, 3.5, 12, 8, 16.97, 1.667, 
1522898290, 128, 124, 128, 3.5, 12, 8, 17.17, 1.683, 
1522898291, 128, 124, 128, 3.5, 12, 8, 17.37, 1.7, 
1522898292, 127, 124, 128, 3.5, 12, 8, 17.57, 1.717, 
1522898293, 125, 124, 128, 3.5, 12, 8, 17.77, 1.733, 
1522898294, 123, 124, 128, 3.5, 12, 8, 17.97, 1.75, 
1522898295, 122, 124, 128, 3.5, 12, 8, 18.17, 1.767, 
1522898296, 121, 123, 128, 3.5, 12, 8, 18.37, 1.783, 
1522898297, 120, 123, 128, 3.5, 12, 8, 18.57, 1.8, 
1522898298, 120, 123, 128, 3.5, 12, 8, 18.77, 1.817, 
1522898299, 120, 123, 128, 3.5, 12, 8, 18.97, 1.833, 
1522898300, 119, 123, 128, 3.5, 12, 8, 19.17, 1.85, 
1522898301, 118, 122, 128, 3.5, 12, 8, 19.37, 1.867, 
1522898302, 117, 122, 128, 3.5, 12, 8, 19.57, 1.883, 
1522898303, 118, 122, 128, 3.5, 12, 8, 19.77, 1.9, 
1522898304, 118, 121, 128, 3.5, 12, 8, 19.97, 1.917, 
1522898305, 120, 121, 128, 3.5, 12, 8, 20.17, 1.933, 
1522898306, 122, 121, 128, 3.5, 12, 8, 20.37, 1.95, 
#timestamp, heartrate, avg heartrate, target_hr, tolerance,  speed, incline, distance, duration, notes
1522898307, 123, 121, 128, 3.5, 12, 8, 20.57, 1.967, 
1522898308, 124, 121, 128, 3.5, 12, 8, 20.77, 1.983, 
1522898309, 123, 121, 128, 3.5, 12, 8, 20.97, 2, 
1522898310, 121, 121, 128, 3.5, 12, 8, 21.17, 2.017, 
1522898311, 120, 122, 128, 3.5, 12, 8, 21.37, 2.033, 
1522898312, 119, 122, 128, 3.5, 12, 8, 21.57, 2.05, 
1522898313, 119, 122, 128, 3.5, 12, 8, 21.77, 2.067,  heartrate too low!
1522898314, 120, 122, 128, 3.5, 12, 8, 21.97, 2.083, 
1522898315, 121, 122, 128, 3.5, 12, 8, 22.17, 2.1, 
1522898316, 122, 121, 128, 3.5, 12, 8, 22.37, 2.117, 
1522898317, 122, 121, 128, 3.5, 12, 8, 22.57, 2.133, 
1522898318, 122, 121, 128, 3.5, 12, 8, 22.77, 2.15, 
1522898319, 122, 121, 128, 3.5, 12, 8, 22.97, 2.167, 
1522898320, 123, 121, 128, 3.5, 13, 8, 23.18, 2.183, 
1522898321, 125, 121, 128, 3.5, 13, 8, 23.4, 2.2, 
1522898322, 126, 121, 128, 3.5, 13, 8, 23.62, 2.217, 
1522898323, 127, 121, 128, 3.5, 13, 8, 23.83, 2.233, 
1522898324, 127, 121, 128, 3.5, 13, 8, 24.05, 2.25, 
1522898325, 126, 121, 128, 3.5, 13, 8, 24.27, 2.267, 
1522898326, 124, 121, 128, 3.5, 13, 8, 24.48, 2.283, 
1522898327, 122, 121, 128, 3.5, 13, 8, 24.7, 2.3, 
1522898328, 121, 121, 128, 3.5, 13, 8, 24.92, 2.317, 
1522898329, 120, 121, 128, 3.5, 13, 8, 25.13, 2.333, 
1522898330, 121, 121, 128, 3.5, 13, 8, 25.35, 2.35, 
1522898331, 122, 121, 128, 3.5, 13, 8, 25.57, 2.367, 
1522898332, 122, 122, 128, 3.5, 13, 8, 25.78, 2.383, 
1522898333, 122, 122, 128, 3.5, 13, 8, 26, 2.4, 
1522898334, 122, 122, 128, 3.5, 13, 8, 26.22, 2.417, 
1522898335, 122, 122, 128, 3.5, 13, 8, 26.43, 2.433, 
1522898337, 122, 122, 128, 3.5, 13, 8, 26.65, 2.467, 
1522898338, 122, 122, 128, 3.5, 13, 8, 26.87, 2.483, 
1522898339, 123, 122, 128, 3.5, 13, 8, 27.08, 2.5, 
1522898340, 124, 122, 128, 3.5, 13, 8, 27.3, 2.517, 
1522898341, 125, 122, 128, 3.5, 13, 8, 27.52, 2.533, 
1522898342, 125, 122, 128, 3.5, 13, 8, 27.73, 2.55, 
1522898343, 126, 122, 128, 3.5, 13, 8, 27.95, 2.567, 
1522898344, 126, 122, 128, 3.5, 13, 8, 28.17, 2.583,  heartrate too low!
1522898345, 126, 123, 128, 3.5, 13, 8, 28.38, 2.6, 
1522898346, 126, 123, 128, 3.5, 13, 8, 28.6, 2.617, 
1522898347, 125, 123, 128, 3.5, 13, 8, 28.82, 2.633, 
1522898348, 125, 123, 128, 3.5, 14, 8, 29.05, 2.65, 
1522898349, 124, 123, 128, 3.5, 14, 8, 29.28, 2.667, 
1522898350, 124, 123, 128, 3.5, 14, 8, 29.52, 2.683, 
1522898351, 124, 123, 128, 3.5, 14, 8, 29.75, 2.7, 
1522898352, 125, 123, 128, 3.5, 14, 8, 29.98, 2.717, 
1522898353, 126, 123, 128, 3.5, 14, 8, 30.22, 2.733, 
1522898354, 127, 123, 128, 3.5, 14, 8, 30.45, 2.75, 
1522898355, 128, 123, 128, 3.5, 14, 8, 30.68, 2.767, 
1522898356, 129, 124, 128, 3.5, 14, 8, 30.92, 2.783, 
1522898357, 129, 124, 128, 3.5, 14, 8, 31.15, 2.8, 
1522898358, 130, 124, 128, 3.5, 14, 8, 31.38, 2.817, 
1522898359, 130, 124, 128, 3.5, 14, 8, 31.62, 2.833, 
1522898360, 130, 124, 128, 3.5, 14, 8, 31.85, 2.85, 
1522898361, 129, 125, 128, 3.5, 14, 8, 32.08, 2.867, 
1522898362, 128, 125, 128, 3.5, 14, 8, 32.32, 2.883, 
1522898363, 126, 125, 128, 3.5, 14, 8, 32.55, 2.9, 
1522898364, 126, 125, 128, 3.5, 14, 8, 32.78, 2.917, 
1522898365, 126, 125, 128, 3.5, 14, 8, 33.02, 2.933, 
1522898366, 127, 126, 128, 3.5, 14, 8, 33.25, 2.95, 
1522898367, 127, 126, 128, 3.5, 14, 8, 33.48, 2.967, 
#timestamp, heartrate, avg heartrate, target_hr, tolerance,  speed, incline, distance, duration, notes
1522898368, 128, 126, 128, 3.5, 14, 8, 33.72, 2.983, 
1522898369, 126, 126, 128, 3.5, 14, 8, 33.95, 3, 
1522898370, 125, 126, 128, 3.5, 14, 8, 34.18, 3.017, 
1522898371, 124, 126, 128, 3.5, 14, 8, 34.42, 3.033, 
1522898372, 124, 126, 128, 3.5, 14, 8, 34.65, 3.05, 
1522898373, 124, 126, 128, 3.5, 14, 8, 34.88, 3.067, 
1522898374, 125, 126, 128, 3.5, 14, 8, 35.12, 3.083, 
1522898375, 125, 126, 128, 3.5, 14, 8, 35.35, 3.1,  heartrate perfect!
1522898376, 124, 126, 128, 3.5, 14, 8, 35.58, 3.117,  heartrate perfect!
1522898377, 123, 126, 128, 3.5, 14, 8, 35.82, 3.133,  heartrate perfect!
1522898378, 122, 126, 128, 3.5, 14, 8, 36.05, 3.15,  heartrate perfect!
1522898379, 121, 126, 128, 3.5, 14, 8, 36.28, 3.167,  heartrate perfect!
1522898380, 121, 125, 128, 3.5, 14, 8, 36.52, 3.183,  heartrate perfect!
1522898381, 121, 125, 128, 3.5, 14, 8, 36.75, 3.2,  heartrate perfect!
1522898382, 123, 125, 128, 3.5, 14, 8, 36.98, 3.217,  heartrate perfect!
1522898383, 123, 125, 128, 3.5, 14, 8, 37.22, 3.233,  heartrate perfect!
1522898384, 124, 125, 128, 3.5, 14, 8, 37.45, 3.25,  heartrate perfect!
1522898385, 125, 125, 128, 3.5, 14, 8, 37.68, 3.267,  heartrate perfect!
1522898386, 126, 125, 128, 3.5, 14, 8, 37.92, 3.283,  heartrate perfect!
1522898387, 126, 125, 128, 3.5, 14, 8, 38.15, 3.3,  heartrate perfect!
1522898388, 127, 125, 128, 3.5, 14, 8, 38.38, 3.317,  heartrate perfect!
1522898389, 127, 125, 128, 3.5, 14, 8, 38.62, 3.333,  heartrate perfect!
1522898390, 128, 125, 128, 3.5, 14, 8, 38.85, 3.35,  heartrate perfect!
1522898391, 128, 125, 128, 3.5, 14, 8, 39.08, 3.367,  heartrate perfect!
1522898392, 128, 125, 128, 3.5, 14, 8, 39.32, 3.383,  heartrate perfect!
1522898393, 129, 125, 128, 3.5, 14, 8, 39.55, 3.4,  heartrate perfect!
1522898394, 129, 125, 128, 3.5, 14, 8, 39.78, 3.417,  heartrate perfect!
1522898395, 129, 125, 128, 3.5, 14, 8, 40.02, 3.433,  heartrate perfect!
1522898396, 130, 125, 128, 3.5, 14, 8, 40.25, 3.45,  heartrate perfect!
1522898397, 130, 125, 128, 3.5, 14, 8, 40.48, 3.467,  heartrate perfect!
1522898398, 131, 125, 128, 3.5, 14, 8, 40.72, 3.483,  heartrate perfect!
1522898399, 131, 125, 128, 3.5, 14, 8, 40.95, 3.5,  heartrate perfect!
1522898400, 130, 125, 128, 3.5, 14, 8, 41.18, 3.517,  heartrate perfect!
1522898401, 130, 126, 128, 3.5, 14, 8, 41.42, 3.533,  heartrate perfect!
1522898402, 129, 126, 128, 3.5, 14, 8, 41.65, 3.55,  heartrate perfect!
1522898403, 128, 126, 128, 3.5, 14, 8, 41.88, 3.567,  heartrate perfect!
1522898404, 127, 126, 128, 3.5, 14, 8, 42.12, 3.583,  heartrate perfect!
1522898405, 126, 126, 128, 3.5, 14, 8, 42.35, 3.6,  heartrate perfect!
1522898406, 127, 126, 128, 3.5, 14, 8, 42.58, 3.617,  heartrate perfect!
1522898407, 127, 126, 128, 3.5, 14, 8, 42.82, 3.633,  heartrate perfect!
1522898408, 128, 126, 128, 3.5, 14, 8, 43.05, 3.65,  heartrate perfect!
1522898409, 128, 127, 128, 3.5, 14, 8, 43.28, 3.667,  heartrate perfect!
1522898410, 128, 127, 128, 3.5, 14, 8, 43.52, 3.683,  heartrate perfect!
1522898411, 130, 127, 128, 3.5, 14, 8, 43.75, 3.7,  heartrate perfect!
1522898412, 132, 127, 128, 3.5, 14, 8, 43.98, 3.717,  heartrate perfect!
1522898413, 133, 128, 128, 3.5, 14, 8, 44.22, 3.733,  heartrate perfect!
1522898414, 134, 128, 128, 3.5, 14, 8, 44.45, 3.75,  heartrate perfect!
1522898415, 135, 128, 128, 3.5, 14, 8, 44.68, 3.767,  heartrate perfect!
1522898416, 136, 129, 128, 3.5, 14, 8, 44.92, 3.783,  heartrate perfect!
1522898417, 135, 129, 128, 3.5, 14, 8, 45.15, 3.8,  heartrate perfect!
1522898418, 135, 129, 128, 3.5, 14, 8, 45.38, 3.817,  heartrate perfect!
1522898419, 133, 130, 128, 3.5, 14, 8, 45.62, 3.833,  heartrate perfect!
1522898420, 132, 130, 128, 3.5, 14, 8, 45.85, 3.85,  heartrate perfect!
1522898421, 130, 130, 128, 3.5, 14, 8, 46.08, 3.867,  heartrate perfect!
1522898422, 130, 130, 128, 3.5, 14, 8, 46.32, 3.883,  heartrate perfect!
1522898423, 130, 130, 128, 3.5, 14, 8, 46.55, 3.9,  heartrate perfect!
1522898424, 131, 130, 128, 3.5, 14, 8, 46.78, 3.917,  heartrate perfect!
1522898425, 131, 130, 128, 3.5, 14, 8, 47.02, 3.933,  heartrate perfect!
1522898426, 131, 130, 128, 3.5, 14, 8, 47.25, 3.95,  heartrate perfect!
1522898427, 130, 130, 128, 3.5, 14, 8, 47.48, 3.967,  heartrate perfect!
#timestamp, heartrate, avg heartrate, target_hr, tolerance,  speed, incline, distance, duration, notes
1522898428, 128, 130, 128, 3.5, 14, 8, 47.72, 3.983,  heartrate perfect!
1522898429, 127, 130, 128, 3.5, 14, 8, 47.95, 4,  heartrate perfect!
1522898430, 127, 130, 128, 3.5, 14, 8, 48.18, 4.017,  heartrate perfect!
1522898431, 127, 130, 128, 3.5, 14, 8, 48.42, 4.033,  heartrate perfect!
1522898432, 128, 130, 128, 3.5, 14, 8, 48.65, 4.05,  heartrate perfect!
1522898433, 129, 130, 128, 3.5, 14, 8, 48.88, 4.067,  heartrate perfect!
1522898434, 131, 130, 128, 3.5, 14, 8, 49.12, 4.083,  heartrate perfect!
1522898435, 132, 130, 128, 3.5, 14, 8, 49.35, 4.1,  heartrate perfect!
1522898436, 132, 130, 128, 3.5, 14, 8, 49.58, 4.117,  heartrate perfect!
1522898437, 131, 130, 128, 3.5, 14, 8, 49.82, 4.133,  heartrate perfect!
1522898438, 130, 130, 128, 3.5, 14, 8, 50.05, 4.15,  heartrate perfect!
1522898439, 130, 130, 128, 3.5, 14, 8, 50.28, 4.167,  heartrate perfect!
1522898440, 130, 131, 128, 3.5, 14, 8, 50.52, 4.183,  heartrate perfect!
1522898441, 132, 131, 128, 3.5, 14, 8, 50.75, 4.2,  heartrate perfect!
1522898442, 132, 131, 128, 3.5, 14, 8, 50.98, 4.217,  heartrate perfect!
1522898443, 134, 131, 128, 3.5, 14, 8, 51.22, 4.233,  heartrate perfect!
1522898444, 135, 131, 128, 3.5, 14, 8, 51.45, 4.25,  heartrate perfect!
1522898445, 135, 131, 128, 3.5, 14, 8, 51.68, 4.267,  heartrate perfect!
1522898446, 135, 131, 128, 3.5, 14, 8, 51.92, 4.283,  heartrate perfect!
1522898447, 135, 131, 128, 3.5, 14, 8, 52.15, 4.3,  heartrate perfect!
1522898448, 135, 131, 128, 3.5, 14, 8, 52.38, 4.317,  heartrate perfect!
1522898449, 136, 131, 128, 3.5, 14, 8, 52.62, 4.333,  heartrate perfect!
1522898450, 138, 131, 128, 3.5, 14, 8, 52.85, 4.35,  heartrate perfect!
1522898451, 139, 131, 128, 3.5, 14, 8, 53.08, 4.367,  heartrate perfect!
1522898452, 141, 132, 128, 3.5, 14, 8, 53.32, 4.383,  heartrate too high!
1522898453, 141, 132, 128, 3.5, 14, 8, 53.55, 4.4, 
1522898454, 141, 132, 128, 3.5, 14, 8, 53.78, 4.417, 
1522898455, 141, 133, 128, 3.5, 14, 8, 54.02, 4.433, 
1522898456, 140, 133, 128, 3.5, 14, 8, 54.25, 4.45, 
1522898457, 138, 133, 128, 3.5, 13, 8, 54.47, 4.467, 
1522898458, 137, 133, 128, 3.5, 13, 8, 54.68, 4.483, 
1522898459, 136, 134, 128, 3.5, 13, 8, 54.9, 4.5, 
1522898460, 136, 134, 128, 3.5, 13, 8, 55.12, 4.517, 
1522898461, 135, 134, 128, 3.5, 13, 8, 55.33, 4.533, 
1522898462, 135, 135, 128, 3.5, 13, 8, 55.55, 4.55, 
1522898463, 135, 135, 128, 3.5, 13, 8, 55.77, 4.567, 
1522898464, 135, 135, 128, 3.5, 13, 8, 55.98, 4.583, 
1522898465, 134, 135, 128, 3.5, 13, 8, 56.2, 4.6, 
1522898466, 134, 135, 128, 3.5, 13, 8, 56.42, 4.617, 
1522898467, 134, 135, 128, 3.5, 13, 8, 56.63, 4.633, 
1522898468, 135, 135, 128, 3.5, 13, 8, 56.85, 4.65, 
1522898469, 135, 135, 128, 3.5, 13, 8, 57.07, 4.667, 
1522898470, 135, 136, 128, 3.5, 13, 8, 57.28, 4.683, 
1522898471, 136, 136, 128, 3.5, 13, 8, 57.5, 4.7, 
1522898472, 137, 136, 128, 3.5, 13, 8, 57.72, 4.717, 
1522898473, 137, 136, 128, 3.5, 13, 8, 57.93, 4.733, 
1522898474, 138, 136, 128, 3.5, 13, 8, 58.15, 4.75, 
1522898475, 139, 136, 128, 3.5, 13, 8, 58.37, 4.767, 
1522898476, 139, 136, 128, 3.5, 13, 8, 58.58, 4.783, 
1522898477, 140, 137, 128, 3.5, 13, 8, 58.8, 4.8, 
1522898478, 140, 137, 128, 3.5, 13, 8, 59.02, 4.817, 
1522898479, 141, 137, 128, 3.5, 13, 8, 59.23, 4.833, 
1522898480, 141, 137, 128, 3.5, 13, 8, 59.45, 4.85, 
1522898481, 141, 137, 128, 3.5, 13, 8, 59.67, 4.867, 
1522898482, 142, 137, 128, 3.5, 13, 8, 59.88, 4.883, 
1522898483, 143, 137, 128, 3.5, 13, 8, 60.1, 4.9,  heartrate too high!
1522898484, 144, 137, 128, 3.5, 13, 8, 60.32, 4.917, 
1522898485, 145, 137, 128, 3.5, 13, 8, 60.53, 4.933, 
1522898486, 145, 138, 128, 3.5, 13, 8, 60.75, 4.95, 
1522898487, 145, 138, 128, 3.5, 13, 8, 60.97, 4.967, 
#timestamp, heartrate, avg heartrate, target_hr, tolerance,  speed, incline, distance, duration, notes
1522898488, 145, 138, 128, 3.5, 13, 8, 61.18, 4.983, 
1522898489, 144, 138, 128, 3.5, 12, 8, 61.38, 5, 
1522898490, 143, 138, 128, 3.5, 12, 8, 61.58, 5.017, 
1522898491, 142, 139, 128, 3.5, 12, 8, 61.78, 5.033, 
1522898492, 141, 139, 128, 3.5, 12, 8, 61.98, 5.05, 
1522898493, 141, 139, 128, 3.5, 12, 8, 62.18, 5.067, 
1522898494, 141, 139, 128, 3.5, 12, 8, 62.38, 5.083, 
1522898495, 141, 139, 128, 3.5, 12, 8, 62.58, 5.1, 
1522898496, 142, 140, 128, 3.5, 12, 8, 62.78, 5.117, 
1522898497, 142, 140, 128, 3.5, 12, 8, 62.98, 5.133, 
1522898498, 143, 140, 128, 3.5, 12, 8, 63.18, 5.15, 
1522898499, 143, 141, 128, 3.5, 12, 8, 63.38, 5.167, 
1522898500, 144, 141, 128, 3.5, 12, 8, 63.58, 5.183, 
1522898501, 145, 141, 128, 3.5, 12, 8, 63.78, 5.2, 
1522898502, 145, 141, 128, 3.5, 12, 8, 63.98, 5.217, 
1522898503, 145, 142, 128, 3.5, 12, 8, 64.18, 5.233, 
1522898504, 145, 142, 128, 3.5, 12, 8, 64.38, 5.25, 
1522898505, 145, 142, 128, 3.5, 12, 8, 64.58, 5.267, 
1522898506, 145, 142, 128, 3.5, 12, 8, 64.78, 5.283, 
1522898507, 145, 143, 128, 3.5, 12, 8, 64.98, 5.3, 
1522898508, 146, 143, 128, 3.5, 12, 8, 65.18, 5.317, 
1522898509, 146, 143, 128, 3.5, 12, 8, 65.38, 5.333, 
1522898510, 147, 143, 128, 3.5, 12, 8, 65.58, 5.35, 
1522898511, 146, 143, 128, 3.5, 12, 8, 65.78, 5.367, 
1522898512, 146, 144, 128, 3.5, 12, 8, 65.98, 5.383, 
1522898513, 144, 144, 128, 3.5, 12, 8, 66.18, 5.4, 
1522898514, 143, 144, 128, 3.5, 12, 8, 66.38, 5.417,  heartrate too high!
1522898515, 142, 143, 128, 3.5, 12, 8, 66.58, 5.433, 
1522898516, 141, 143, 128, 3.5, 12, 8, 66.78, 5.45, 
1522898517, 140, 143, 128, 3.5, 12, 8, 66.98, 5.467, 
1522898518, 140, 143, 128, 3.5, 11, 8, 67.17, 5.483, 
1522898519, 140, 143, 128, 3.5, 11, 8, 67.35, 5.5, 
1522898520, 140, 143, 128, 3.5, 11, 8, 67.53, 5.517, 
1522898521, 140, 143, 128, 3.5, 11, 8, 67.72, 5.533, 
1522898522, 140, 143, 128, 3.5, 11, 8, 67.9, 5.55, 
1522898523, 139, 143, 128, 3.5, 11, 8, 68.08, 5.567, 
1522898524, 139, 142, 128, 3.5, 11, 8, 68.27, 5.583, 
1522898525, 138, 142, 128, 3.5, 11, 8, 68.45, 5.6, 
1522898526, 138, 142, 128, 3.5, 11, 8, 68.63, 5.617, 
1522898527, 138, 142, 128, 3.5, 11, 8, 68.82, 5.633, 
1522898528, 138, 142, 128, 3.5, 11, 8, 69, 5.65, 
1522898529, 137, 142, 128, 3.5, 11, 8, 69.18, 5.667, 
1522898530, 136, 141, 128, 3.5, 11, 8, 69.37, 5.683, 
1522898531, 135, 141, 128, 3.5, 11, 8, 69.55, 5.7, 
1522898532, 135, 141, 128, 3.5, 11, 8, 69.73, 5.717, 
1522898533, 136, 141, 128, 3.5, 11, 8, 69.92, 5.733, 
1522898534, 137, 140, 128, 3.5, 11, 8, 70.1, 5.75, 
1522898535, 137, 140, 128, 3.5, 11, 8, 70.28, 5.767, 
1522898536, 138, 140, 128, 3.5, 11, 8, 70.47, 5.783, 
1522898537, 137, 139, 128, 3.5, 11, 8, 70.65, 5.8, 
1522898538, 137, 139, 128, 3.5, 11, 8, 70.83, 5.817, 
1522898539, 137, 139, 128, 3.5, 11, 8, 71.02, 5.833, 
1522898540, 137, 139, 128, 3.5, 11, 8, 71.2, 5.85, 
1522898541, 137, 138, 128, 3.5, 11, 8, 71.38, 5.867, 
1522898542, 137, 138, 128, 3.5, 11, 8, 71.57, 5.883, 
1522898543, 137, 138, 128, 3.5, 11, 8, 71.75, 5.9, 
1522898544, 137, 138, 128, 3.5, 11, 8, 71.93, 5.917, 
1522898545, 137, 138, 128, 3.5, 11, 8, 72.12, 5.933,  heartrate too high!
1522898546, 137, 137, 128, 3.5, 11, 8, 72.3, 5.95, 
1522898547, 136, 137, 128, 3.5, 11, 8, 72.48, 5.967, 
#timestamp, heartrate, avg heartrate, target_hr, tolerance,  speed, incline, distance, duration, notes
1522898548, 136, 137, 128, 3.5, 11, 8, 72.67, 5.983, 
1522898549, 136, 137, 128, 3.5, 11, 8, 72.85, 6, 
1522898550, 136, 137, 128, 3.5, 11, 8, 73.03, 6.017, 
1522898551, 136, 137, 128, 3.5, 10, 8, 73.2, 6.033, 
1522898552, 136, 137, 128, 3.5, 10, 8, 73.37, 6.05, 
1522898553, 136, 136, 128, 3.5, 10, 8, 73.53, 6.067, 
1522898554, 135, 136, 128, 3.5, 10, 8, 73.7, 6.083, 
1522898555, 135, 136, 128, 3.5, 10, 8, 73.87, 6.1, 
1522898556, 134, 136, 128, 3.5, 10, 8, 74.03, 6.117, 
1522898557, 133, 136, 128, 3.5, 10, 8, 74.2, 6.133, 
1522898558, 133, 136, 128, 3.5, 10, 8, 74.37, 6.15, 
1522898559, 133, 135, 128, 3.5, 10, 8, 74.53, 6.167, 
1522898560, 134, 135, 128, 3.5, 10, 8, 74.7, 6.183, 
1522898561, 136, 135, 128, 3.5, 10, 8, 74.87, 6.2, 
1522898562, 138, 135, 128, 3.5, 10, 8, 75.03, 6.217, 
1522898563, 139, 136, 128, 3.5, 10, 8, 75.2, 6.233, 
1522898564, 141, 136, 128, 3.5, 10, 8, 75.37, 6.25, 
1522898565, 142, 136, 128, 3.5, 10, 8, 75.53, 6.267, 
1522898566, 143, 136, 128, 3.5, 10, 8, 75.7, 6.283, 
1522898567, 144, 136, 128, 3.5, 10, 8, 75.87, 6.3, 
1522898568, 145, 137, 128, 3.5, 10, 8, 76.03, 6.317, 
1522898569, 145, 137, 128, 3.5, 10, 8, 76.2, 6.333, 
1522898570, 145, 137, 128, 3.5, 10, 8, 76.37, 6.35, 
1522898571, 146, 137, 128, 3.5, 10, 8, 76.53, 6.367, 
1522898572, 146, 138, 128, 3.5, 10, 8, 76.7, 6.383, 
1522898573, 146, 138, 128, 3.5, 10, 8, 76.87, 6.4, 
1522898574, 146, 138, 128, 3.5, 10, 8, 77.03, 6.417, 
1522898575, 148, 139, 128, 3.5, 10, 8, 77.2, 6.433, 
1522898576, 148, 139, 128, 3.5, 10, 8, 77.37, 6.45,  heartrate too high!
1522898577, 148, 139, 128, 3.5, 10, 8, 77.53, 6.467, 
1522898578, 148, 140, 128, 3.5, 10, 8, 77.7, 6.483, 
1522898579, 147, 140, 128, 3.5, 10, 8, 77.87, 6.5, 
1522898580, 146, 141, 128, 3.5, 10, 8, 78.03, 6.517, 
1522898581, 145, 141, 128, 3.5, 10, 8, 78.2, 6.533, 
1522898582, 144, 141, 128, 3.5, 9, 8, 78.35, 6.55, 
1522898583, 144, 141, 128, 3.5, 9, 8, 78.5, 6.567, 
1522898584, 144, 142, 128, 3.5, 9, 8, 78.65, 6.583, 
1522898585, 144, 142, 128, 3.5, 9, 8, 78.8, 6.6, 
1522898586, 143, 142, 128, 3.5, 9, 8, 78.95, 6.617, 
1522898587, 142, 143, 128, 3.5, 9, 8, 79.1, 6.633, 
1522898588, 141, 143, 128, 3.5, 9, 8, 79.25, 6.65, 
1522898589, 140, 143, 128, 3.5, 9, 8, 79.4, 6.667, 
1522898590, 138, 143, 128, 3.5, 9, 8, 79.55, 6.683, 
1522898591, 138, 143, 128, 3.5, 9, 8, 79.7, 6.7, 
1522898592, 138, 143, 128, 3.5, 9, 8, 79.85, 6.717, 